contact:dominique.lefevre@mio.osupytheas.fr, maurice.libes@osupytheas.fr, didier.mallarino@osupytheas.fr
Project:EMSO http://www.emso-fr.org/EMSO-France
Depth: 2436.0 m
Title:EMSO Ligure Ouest : Data MII capteur AQUADOPP
Date,Latitude,Longitude,X_East,Y_North,Z_Up,Amplitude_X,Amplitude_Y,Amplitude_Z,Batterie,SoundSpeed,Heading,Pitch,Roll,Pressure,TIS,Speed,Direction
, degrees North, degrees East, m.s-1, m.s-1,m.s-1, 1, 1, 1, Volt, m.s-1, degree, degree, degree, dbar, degree_C, m.s-1, degree
2023-04-12T00:04:03,42.805,6.029,-0.016,0.001,0.0,104.0,104.0,102.0,13.3,1505.2,334.2,-0.8,1.8,2471.42,13.28,0.016,273.6
2023-04-12T00:07:03,42.805,6.029,0.005,-0.022,-0.027,105.0,104.0,102.0,13.4,1505.2,327.6,-0.8,1.8,2471.387,13.29,0.022,167.2
2023-04-12T00:10:03,42.805,6.029,0.01,-0.003,0.013,104.0,105.0,103.0,13.4,1505.2,322.6,-0.8,1.8,2471.387,13.29,0.01,106.7
2023-04-12T00:13:03,42.805,6.029,0.02,-0.017,-0.022,106.0,105.0,103.0,13.4,1505.2,334.6,-0.8,1.8,2471.404,13.29,0.026,130.4
2023-04-12T00:16:03,42.805,6.029,0.03,-0.022,-0.027,106.0,107.0,102.0,13.4,1505.2,323.4,-0.8,1.8,2471.399,13.29,0.037,126.3
2023-04-12T00:19:03,42.805,6.029,0.013,-0.019,-0.023,104.0,105.0,104.0,13.4,1505.2,333.0,-0.7,1.8,2471.371,13.29,0.023,145.6
2023-04-12T00:22:03,42.805,6.029,0.01,-0.009,-0.012,106.0,104.0,103.0,13.4,1505.2,332.5,-0.7,1.8,2471.367,13.29,0.013,132.0
2023-04-12T00:25:03,42.805,6.029,-0.003,-0.007,0.002,106.0,105.0,102.0,13.4,1505.2,332.9,-0.8,1.8,2471.347,13.29,0.007,203.2
2023-04-12T00:28:03,42.805,6.029,0.003,-0.016,-0.018,104.0,106.0,103.0,13.4,1505.2,319.6,-0.7,1.8,2471.36,13.29,0.016,169.4
2023-04-12T00:31:03,42.805,6.029,0.014,-0.015,-0.011,105.0,104.0,101.0,13.4,1505.2,335.4,-0.8,1.8,2471.367,13.29,0.02,137.0
2023-04-12T00:34:03,42.805,6.029,-0.009,-0.009,-0.015,104.0,104.0,103.0,13.4,1505.2,327.9,-0.8,1.8,2471.32,13.29,0.012,225.0
2023-04-12T00:37:03,42.805,6.029,0.023,-0.014,-0.021,104.0,104.0,101.0,13.4,1505.2,325.0,-0.8,1.8,2471.391,13.29,0.026,121.3
2023-04-12T00:40:03,42.805,6.029,0.01,-0.019,-0.043,105.0,104.0,103.0,13.4,1505.2,334.6,-0.8,1.8,2471.358,13.29,0.021,152.2
2023-04-12T00:43:03,42.805,6.029,-0.001,-0.017,-0.04,106.0,105.0,102.0,13.3,1505.2,318.5,-0.8,1.8,2471.38,13.29,0.017,183.4
2023-04-12T00:46:03,42.805,6.029,0.005,-0.011,-0.017,107.0,104.0,103.0,13.4,1505.2,328.2,-0.8,1.8,2471.391,13.29,0.012,155.6
2023-04-12T00:49:03,42.805,6.029,0.026,-0.019,-0.036,105.0,104.0,102.0,13.4,1505.2,329.1,-0.8,1.8,2471.381,13.29,0.032,126.2
2023-04-12T00:52:03,42.805,6.029,0.025,-0.01,0.031,105.0,103.0,103.0,13.4,1505.2,325.2,-0.7,1.8,2471.339,13.29,0.026,111.8
2023-04-12T00:55:03,42.805,6.029,0.024,-0.027,-0.004,104.0,104.0,103.0,13.4,1505.2,337.6,-0.8,1.8,2471.33,13.29,0.036,138.4
2023-04-12T00:58:03,42.805,6.029,-0.004,-0.017,-0.019,104.0,105.0,102.0,13.4,1505.2,335.2,-0.8,1.8,2471.386,13.29,0.017,193.2
2023-04-12T01:04:03,42.805,6.029,-0.013,0.006,-0.067,105.0,105.0,104.0,13.4,1505.2,322.4,-0.8,1.8,2471.36,13.29,0.014,294.8
2023-04-12T01:07:03,42.805,6.029,0.024,-0.015,-0.03,107.0,106.0,104.0,13.4,1505.2,326.0,-0.8,1.8,2471.379,13.29,0.028,122.0
2023-04-12T01:10:03,42.805,6.029,0.001,-0.012,-0.008,104.0,104.0,102.0,13.3,1505.2,330.5,-0.8,1.8,2471.364,13.29,0.012,175.2
2023-04-12T01:13:03,42.805,6.029,0.005,-0.012,0.004,106.0,105.0,102.0,13.4,1505.2,328.6,-0.8,1.8,2471.39,13.29,0.013,157.4
2023-04-12T01:16:05,42.805,6.029,0.014,-0.029,-0.049,104.0,103.0,103.0,13.4,1505.2,335.8,-0.8,1.8,2471.396,13.29,0.032,154.2
2023-04-12T01:19:03,42.805,6.029,-0.004,0.002,-0.048,104.0,104.0,102.0,13.4,1505.2,345.2,-0.8,1.9,2471.374,13.29,0.004,296.6
2023-04-12T01:22:03,42.805,6.029,0.001,-0.016,-0.031,104.0,105.0,102.0,13.4,1505.2,336.2,-0.8,1.8,2471.363,13.29,0.016,176.4
2023-04-12T01:25:03,42.805,6.029,0.01,-0.008,-0.014,104.0,104.0,103.0,13.3,1505.2,346.2,-0.8,1.8,2471.348,13.29,0.012,128.7
2023-04-12T01:28:03,42.805,6.029,0.008,0.01,-0.018,104.0,104.0,102.0,13.4,1505.2,319.8,-0.8,1.8,2471.357,13.29,0.012,38.7
2023-04-12T01:31:03,42.805,6.029,0.011,-0.011,-0.011,106.0,104.0,101.0,13.3,1505.2,332.9,-0.8,1.8,2471.362,13.29,0.015,135.0
2023-04-12T01:34:03,42.805,6.029,0.004,0.008,-0.006,106.0,103.0,103.0,13.4,1505.2,327.4,-0.7,1.9,2471.354,13.29,0.008,26.6
2023-04-12T01:37:03,42.805,6.029,-0.019,-0.01,-0.039,105.0,104.0,102.0,13.3,1505.2,322.3,-0.8,1.8,2471.325,13.29,0.021,242.2
2023-04-12T01:40:03,42.805,6.029,0.008,-0.013,-0.045,103.0,103.0,103.0,13.4,1505.2,333.4,-0.7,1.8,2471.393,13.29,0.015,148.4
2023-04-12T01:43:03,42.805,6.029,0.005,0.005,-0.016,103.0,102.0,103.0,13.4,1505.2,327.3,-0.8,1.8,2471.324,13.29,0.007,45.0
2023-04-12T01:46:03,42.805,6.029,0.02,-0.013,-0.024,104.0,103.0,102.0,13.4,1505.2,326.0,-0.7,1.8,2471.326,13.29,0.023,123.0
2023-04-12T01:49:03,42.805,6.029,-0.001,-0.006,-0.027,104.0,103.0,102.0,13.3,1505.2,335.0,-0.7,1.8,2471.325,13.29,0.006,189.5
2023-04-12T01:52:03,42.805,6.029,-0.021,-0.006,-0.034,104.0,103.0,101.0,13.3,1505.2,319.8,-0.8,1.8,2471.362,13.29,0.021,254.1
2023-04-12T01:55:03,42.805,6.029,-0.004,-0.004,-0.023,104.0,102.0,101.0,13.4,1505.2,339.1,-0.7,1.8,2471.334,13.29,0.005,225.0
2023-04-12T01:58:03,42.805,6.029,-0.009,-0.01,-0.032,104.0,103.0,101.0,13.3,1505.2,321.4,-0.8,1.8,2471.325,13.29,0.013,222.0
2023-04-12T02:04:03,42.805,6.029,0.021,-0.003,-0.023,104.0,104.0,101.0,13.3,1505.2,331.0,-0.8,1.8,2471.386,13.29,0.021,98.1
2023-04-12T02:07:03,42.805,6.029,0.0,-0.023,-0.04,104.0,103.0,102.0,13.4,1505.2,327.4,-0.8,1.8,2471.349,13.29,0.023,180.0
2023-04-12T02:10:03,42.805,6.029,0.022,0.0,-0.025,105.0,104.0,102.0,13.4,1505.2,327.3,-0.8,1.8,2471.375,13.29,0.022,90.0
2023-04-12T02:13:03,42.805,6.029,0.01,-0.003,-0.007,104.0,104.0,103.0,13.3,1505.2,342.8,-0.8,1.8,2471.339,13.29,0.01,106.7
2023-04-12T02:16:03,42.805,6.029,0.0,-0.032,-0.016,105.0,104.0,103.0,13.3,1505.2,336.8,-0.8,1.8,2471.362,13.29,0.032,180.0
2023-04-12T02:19:03,42.805,6.029,-0.001,-0.013,-0.034,104.0,102.0,102.0,13.4,1505.2,322.2,-0.8,1.8,2471.37,13.29,0.013,184.4
2023-04-12T02:22:03,42.805,6.029,0.002,-0.003,-0.037,105.0,103.0,102.0,13.4,1505.2,334.6,-0.8,1.8,2471.329,13.29,0.003,146.3
2023-04-12T02:25:03,42.805,6.029,-0.009,-0.005,0.004,105.0,105.0,102.0,13.4,1505.2,345.2,-0.7,1.8,2471.306,13.29,0.01,240.9
2023-04-12T02:28:03,42.805,6.029,0.008,-0.01,-0.036,103.0,105.0,102.0,13.4,1505.2,342.8,-0.8,1.8,2471.328,13.29,0.012,141.3
2023-04-12T02:31:03,42.805,6.029,0.018,-0.004,-0.002,103.0,103.0,102.0,13.4,1505.2,325.4,-0.7,1.8,2471.316,13.29,0.018,102.5
2023-04-12T02:34:03,42.805,6.029,0.011,-0.015,-0.016,104.0,103.0,102.0,13.4,1505.2,329.3,-0.8,1.8,2471.344,13.29,0.018,143.7
2023-04-12T02:37:03,42.805,6.029,0.009,-0.014,-0.059,104.0,103.0,102.0,13.3,1505.2,327.7,-0.8,1.8,2471.321,13.29,0.016,147.3
2023-04-12T02:40:03,42.805,6.029,0.0,0.0,-0.023,105.0,103.0,103.0,13.3,1505.2,316.1,-0.7,1.8,2471.338,13.29,0.0,0.0
2023-04-12T02:43:03,42.805,6.029,0.024,-0.003,-0.022,103.0,103.0,101.0,13.4,1505.2,332.5,-0.8,1.8,2471.338,13.29,0.024,97.1
2023-04-12T02:46:03,42.805,6.029,0.007,0.011,0.001,104.0,102.0,101.0,13.4,1505.2,327.5,-0.7,1.9,2471.306,13.29,0.013,32.5
2023-04-12T02:49:03,42.805,6.029,0.018,-0.03,-0.036,103.0,102.0,101.0,13.4,1505.2,335.8,-0.8,1.8,2471.306,13.29,0.034,149.0
2023-04-12T02:52:03,42.805,6.029,0.018,-0.014,-0.025,104.0,103.0,102.0,13.4,1505.2,336.0,-0.8,1.8,2471.286,13.29,0.022,127.9
2023-04-12T02:55:03,42.805,6.029,0.007,0.001,-0.02,103.0,102.0,102.0,13.3,1505.2,325.6,-0.8,1.9,2471.298,13.29,0.007,81.9
2023-04-12T02:58:03,42.805,6.029,0.0,0.0,-0.039,104.0,103.0,103.0,13.3,1505.2,325.4,-0.7,1.8,2471.297,13.29,0.0,0.0
2023-04-12T03:04:03,42.805,6.029,0.003,-0.011,-0.042,104.0,103.0,102.0,13.4,1505.2,330.7,-0.7,1.8,2471.358,13.29,0.011,164.7
2023-04-12T03:07:03,42.805,6.029,0.009,-0.001,-0.019,105.0,102.0,102.0,13.4,1505.2,333.0,-0.8,1.8,2471.348,13.29,0.009,96.3
2023-04-12T03:10:03,42.805,6.029,0.0,-0.013,-0.021,103.0,103.0,102.0,13.4,1505.2,323.3,-0.8,1.8,2471.335,13.29,0.013,180.0
2023-04-12T03:13:03,42.805,6.029,0.0,-0.008,-0.027,103.0,102.0,102.0,13.3,1505.2,320.8,-0.8,1.8,2471.326,13.29,0.008,180.0
2023-04-12T03:16:03,42.805,6.029,-0.002,0.01,-0.025,103.0,103.0,103.0,13.4,1505.2,330.1,-0.8,1.8,2471.345,13.29,0.01,348.7
2023-04-12T03:19:03,42.805,6.029,0.013,-0.004,-0.02,101.0,103.0,102.0,13.4,1505.2,326.7,-0.7,1.8,2471.288,13.29,0.013,107.1
2023-04-12T03:22:03,42.805,6.029,-0.005,-0.022,-0.013,105.0,103.0,101.0,13.4,1505.2,337.8,-0.8,1.8,2471.311,13.29,0.022,192.8
2023-04-12T03:25:03,42.805,6.029,0.0,0.004,-0.031,104.0,103.0,101.0,13.4,1505.2,327.1,-0.7,1.8,2471.315,13.29,0.004,0.0
2023-04-12T03:28:03,42.805,6.029,-0.005,-0.017,-0.03,104.0,104.0,103.0,13.4,1505.2,322.7,-0.8,1.8,2471.284,13.29,0.017,196.4
2023-04-12T03:31:03,42.805,6.029,0.026,-0.025,-0.007,106.0,105.0,101.0,13.3,1505.2,339.5,-0.8,1.8,2471.298,13.29,0.036,133.9
2023-04-12T03:34:03,42.805,6.029,-0.007,-0.011,-0.025,105.0,104.0,102.0,13.4,1505.2,329.5,-0.8,1.8,2471.29,13.29,0.013,212.5
2023-04-12T03:37:03,42.805,6.029,0.001,-0.016,-0.028,105.0,105.0,103.0,13.3,1505.2,335.8,-0.8,1.8,2471.289,13.29,0.016,176.4
2023-04-12T03:40:03,42.805,6.029,0.012,0.0,-0.004,106.0,104.0,102.0,13.4,1505.2,321.0,-0.8,1.9,2471.27,13.29,0.012,90.0
2023-04-12T03:43:03,42.805,6.029,-0.003,-0.012,-0.012,104.0,104.0,102.0,13.4,1505.2,337.3,-0.7,1.8,2471.292,13.29,0.012,194.0
2023-04-12T03:46:03,42.805,6.029,0.0,-0.011,-0.019,107.0,105.0,104.0,13.3,1505.2,321.4,-0.8,1.8,2471.319,13.29,0.011,180.0
2023-04-12T03:49:03,42.805,6.029,0.02,-0.003,-0.01,107.0,105.0,103.0,13.4,1505.2,322.9,-0.8,1.8,2471.301,13.29,0.02,98.5
2023-04-12T03:52:03,42.805,6.029,0.008,-0.005,-0.001,104.0,104.0,103.0,13.4,1505.2,328.1,-0.8,1.8,2471.259,13.29,0.009,122.0
2023-04-12T03:55:03,42.805,6.029,-0.003,-0.021,-0.025,106.0,105.0,103.0,13.3,1505.2,333.8,-0.8,1.8,2471.289,13.29,0.021,188.1
2023-04-12T03:58:03,42.805,6.029,0.01,-0.021,-0.017,104.0,104.0,103.0,13.4,1505.2,345.4,-0.8,1.8,2471.288,13.29,0.023,154.5
2023-04-12T04:04:03,42.805,6.029,0.005,-0.01,-0.018,104.0,105.0,105.0,13.4,1505.2,339.2,-0.8,1.8,2471.36,13.29,0.011,153.4
2023-04-12T04:07:03,42.805,6.029,0.019,-0.017,-0.001,104.0,103.0,102.0,13.3,1505.2,331.3,-0.8,1.8,2471.321,13.29,0.025,131.8
2023-04-12T04:10:03,42.805,6.029,0.0,-0.026,-0.035,104.0,103.0,103.0,13.3,1505.2,325.5,-0.8,1.8,2471.342,13.29,0.026,180.0
2023-04-12T04:13:03,42.805,6.029,0.02,-0.017,-0.042,105.0,104.0,103.0,13.4,1505.2,331.9,-0.7,1.8,2471.32,13.29,0.026,130.4
2023-04-12T04:16:03,42.805,6.029,0.01,-0.005,-0.022,104.0,105.0,103.0,13.4,1505.2,336.2,-0.7,1.8,2471.255,13.29,0.011,116.6
2023-04-12T04:19:03,42.805,6.029,0.016,-0.006,-0.03,105.0,105.0,104.0,13.4,1505.2,321.3,-0.8,1.8,2471.293,13.29,0.017,110.6
2023-04-12T04:22:03,42.805,6.029,0.015,-0.011,-0.025,105.0,105.0,102.0,13.4,1505.2,327.0,-0.8,1.8,2471.309,13.29,0.018,126.3
2023-04-12T04:25:03,42.805,6.029,-0.008,-0.019,-0.032,106.0,104.0,102.0,13.3,1505.2,328.5,-0.8,1.8,2471.313,13.29,0.02,202.8
2023-04-12T04:28:03,42.805,6.029,0.015,0.007,0.002,105.0,105.0,103.0,13.4,1505.2,329.0,-0.7,1.8,2471.316,13.29,0.016,65.0
2023-04-12T04:31:03,42.805,6.029,0.015,0.0,-0.008,104.0,106.0,103.0,13.4,1505.2,340.9,-0.8,1.8,2471.281,13.29,0.015,90.0
2023-04-12T04:34:03,42.805,6.029,0.014,-0.008,-0.019,104.0,104.0,103.0,13.4,1505.2,317.4,-0.8,1.8,2471.247,13.29,0.016,119.7
2023-04-12T04:37:03,42.805,6.029,0.005,-0.011,-0.032,106.0,105.0,102.0,13.4,1505.2,337.6,-0.8,1.8,2471.311,13.29,0.012,155.6
2023-04-12T04:40:03,42.805,6.029,0.01,-0.019,-0.034,105.0,106.0,102.0,13.3,1505.2,324.4,-0.7,1.8,2471.297,13.29,0.021,152.2
2023-04-12T04:43:03,42.805,6.029,0.006,-0.014,-0.031,104.0,106.0,103.0,13.3,1505.2,342.8,-0.7,1.8,2471.305,13.29,0.015,156.8
2023-04-12T04:46:03,42.805,6.029,0.012,-0.021,-0.025,104.0,104.0,103.0,13.4,1505.2,336.6,-0.7,1.8,2471.297,13.29,0.024,150.3
2023-04-12T04:49:03,42.805,6.029,-0.005,-0.01,-0.038,105.0,104.0,103.0,13.4,1505.2,326.0,-0.8,1.8,2471.281,13.29,0.011,206.6
2023-04-12T04:52:03,42.805,6.029,-0.001,0.001,-0.002,104.0,105.0,102.0,13.3,1505.2,344.9,-0.7,1.8,2471.253,13.29,0.001,315.0
2023-04-12T04:55:03,42.805,6.029,0.001,-0.005,-0.016,105.0,105.0,102.0,13.4,1505.2,333.8,-0.8,1.8,2471.315,13.29,0.005,168.7
2023-04-12T04:58:03,42.805,6.029,0.023,0.003,-0.011,104.0,105.0,104.0,13.4,1505.2,316.1,-0.8,1.8,2471.261,13.29,0.023,82.6
2023-04-12T05:04:03,42.805,6.029,-0.01,-0.019,-0.002,106.0,104.0,101.0,13.4,1505.2,328.8,-0.8,1.8,2471.323,13.28,0.021,207.8
2023-04-12T05:07:03,42.805,6.029,0.003,-0.005,-0.021,106.0,105.0,105.0,13.3,1505.2,319.6,-0.8,1.8,2471.303,13.29,0.005,149.0
2023-04-12T05:10:03,42.805,6.029,0.005,-0.01,-0.009,104.0,105.0,103.0,13.4,1505.2,329.9,-0.8,1.8,2471.299,13.29,0.011,153.4
2023-04-12T05:13:03,42.805,6.029,0.014,0.001,-0.027,105.0,105.0,103.0,13.4,1505.2,331.4,-0.7,1.8,2471.299,13.29,0.014,85.9
2023-04-12T05:16:03,42.805,6.029,-0.007,-0.018,-0.031,104.0,105.0,102.0,13.3,1505.2,322.5,-0.8,1.8,2471.259,13.29,0.019,201.2
2023-04-12T05:19:03,42.805,6.029,0.015,-0.015,-0.032,105.0,105.0,102.0,13.3,1505.2,326.8,-0.8,1.8,2471.27,13.29,0.021,135.0
2023-04-12T05:22:03,42.805,6.029,-0.002,-0.011,0.017,104.0,103.0,103.0,13.4,1505.2,325.6,-0.8,1.8,2471.265,13.29,0.011,190.3
2023-04-12T05:25:03,42.805,6.029,0.013,-0.008,0.016,104.0,104.0,103.0,13.4,1505.2,329.1,-0.7,1.8,2471.275,13.29,0.015,121.6
2023-04-12T05:28:03,42.805,6.029,-0.01,-0.006,-0.035,104.0,105.0,103.0,13.4,1505.2,324.7,-0.8,1.8,2471.318,13.29,0.011,239.0
2023-04-12T05:31:03,42.805,6.029,-0.01,-0.005,-0.038,104.0,104.0,103.0,13.3,1505.2,329.3,-0.8,1.8,2471.29,13.29,0.011,243.4
2023-04-12T05:34:03,42.805,6.029,0.012,-0.029,-0.01,104.0,103.0,103.0,13.4,1505.2,333.4,-0.8,1.8,2471.275,13.29,0.031,157.5
2023-04-12T05:37:03,42.805,6.029,0.001,-0.016,-0.006,104.0,104.0,103.0,13.4,1505.2,344.3,-0.7,1.8,2471.241,13.29,0.016,176.4
2023-04-12T05:40:03,42.805,6.029,0.011,-0.013,-0.043,104.0,103.0,102.0,13.3,1505.2,318.2,-0.7,1.8,2471.241,13.29,0.017,139.8
2023-04-12T05:43:03,42.805,6.029,0.001,-0.01,-0.047,104.0,103.0,101.0,13.4,1505.2,326.0,-0.8,1.8,2471.245,13.29,0.01,174.3
2023-04-12T05:46:03,42.805,6.029,-0.005,0.004,-0.023,103.0,105.0,103.0,13.4,1505.2,324.6,-0.8,1.8,2471.26,13.29,0.006,308.7
2023-04-12T05:49:03,42.805,6.029,0.024,-0.009,0.0,103.0,103.0,102.0,13.3,1505.2,323.3,-0.8,1.8,2471.26,13.29,0.025,110.6
2023-04-12T05:52:03,42.805,6.029,-0.005,-0.004,-0.009,103.0,103.0,103.0,13.4,1505.2,343.3,-0.8,1.8,2471.263,13.29,0.006,231.3
2023-04-12T05:55:03,42.805,6.029,0.001,0.005,-0.035,104.0,103.0,102.0,13.3,1505.2,319.6,-0.8,1.8,2471.261,13.29,0.005,11.3
2023-04-12T05:58:03,42.805,6.029,0.005,-0.016,-0.023,104.0,105.0,102.0,13.4,1505.2,336.8,-0.8,1.8,2471.254,13.29,0.016,162.6
2023-04-12T06:04:03,42.805,6.029,0.0,-0.011,-0.009,104.0,103.0,103.0,13.4,1505.2,323.3,-0.7,1.8,2471.289,13.29,0.011,180.0
2023-04-12T06:07:03,42.805,6.029,-0.007,-0.006,-0.042,104.0,104.0,102.0,13.4,1505.2,332.6,-0.7,1.8,2471.278,13.29,0.009,229.4
2023-04-12T06:10:03,42.805,6.029,0.0,-0.016,-0.039,104.0,102.0,101.0,13.4,1505.2,316.9,-0.8,1.8,2471.263,13.29,0.016,180.0
2023-04-12T06:13:03,42.805,6.029,0.029,-0.008,-0.008,103.0,104.0,102.0,13.4,1505.2,329.0,-0.8,1.8,2471.255,13.29,0.03,105.4
2023-04-12T06:16:03,42.805,6.029,-0.013,-0.016,-0.03,103.0,104.0,101.0,13.4,1505.2,341.5,-0.8,1.8,2471.259,13.29,0.02,219.1
2023-04-12T06:19:03,42.805,6.029,-0.015,-0.001,-0.011,103.0,103.0,103.0,13.4,1505.2,331.0,-0.8,1.8,2471.235,13.29,0.015,266.2
2023-04-12T06:22:03,42.805,6.029,-0.002,-0.01,-0.048,105.0,104.0,102.0,13.3,1505.2,340.2,-0.7,1.8,2471.243,13.29,0.01,191.3
2023-04-12T06:25:03,42.805,6.029,0.009,-0.011,0.003,106.0,103.0,102.0,13.4,1505.2,327.7,-0.8,1.8,2471.276,13.29,0.014,140.7
2023-04-12T06:28:03,42.805,6.029,0.001,0.006,0.015,105.0,104.0,103.0,13.4,1505.2,344.6,-0.8,1.8,2471.248,13.29,0.006,9.5
2023-04-12T06:31:03,42.805,6.029,-0.019,-0.026,-0.021,105.0,104.0,103.0,13.4,1505.2,332.0,-0.8,1.8,2471.257,13.29,0.032,216.2
2023-04-12T06:34:03,42.805,6.029,0.005,-0.007,-0.032,104.0,105.0,102.0,13.4,1505.2,331.4,-0.7,1.8,2471.27,13.29,0.008,144.5
2023-04-12T06:37:03,42.805,6.029,0.003,-0.003,-0.021,104.0,104.0,102.0,13.3,1505.2,321.1,-0.7,1.8,2471.263,13.29,0.004,135.0
2023-04-12T06:40:03,42.805,6.029,0.009,0.003,-0.025,104.0,103.0,102.0,13.4,1505.2,332.9,-0.8,1.8,2471.282,13.29,0.009,71.6
2023-04-12T06:43:03,42.805,6.029,0.011,-0.006,-0.035,103.0,104.0,102.0,13.4,1505.2,342.7,-0.8,1.8,2471.221,13.29,0.012,118.6
2023-04-12T06:46:03,42.805,6.029,0.016,-0.012,0.002,104.0,104.0,102.0,13.4,1505.2,320.1,-0.8,1.8,2471.275,13.29,0.02,126.9
2023-04-12T06:49:03,42.805,6.029,0.014,-0.005,-0.017,105.0,102.0,102.0,13.4,1505.2,325.3,-0.8,1.8,2471.244,13.29,0.014,109.6
2023-04-12T06:52:03,42.805,6.029,0.013,-0.016,-0.005,104.0,104.0,102.0,13.3,1505.2,342.5,-0.8,1.8,2471.249,13.29,0.02,140.9
2023-04-12T06:55:03,42.805,6.029,0.024,-0.02,-0.004,105.0,105.0,102.0,13.3,1505.2,326.3,-0.8,1.8,2471.242,13.29,0.031,129.8
2023-04-12T06:58:03,42.805,6.029,0.015,-0.006,-0.016,103.0,106.0,101.0,13.3,1505.2,333.4,-0.8,1.8,2471.293,13.29,0.016,111.8
2023-04-12T07:04:03,42.805,6.029,0.007,0.0,-0.013,103.0,104.0,102.0,13.3,1505.2,320.3,-0.8,1.8,2471.309,13.29,0.007,90.0
2023-04-12T07:07:03,42.805,6.029,0.011,-0.008,-0.003,105.0,104.0,103.0,13.4,1505.2,323.8,-0.8,1.8,2471.307,13.29,0.013,126.0
2023-04-12T07:10:03,42.805,6.029,0.023,-0.009,-0.023,105.0,104.0,102.0,13.3,1505.2,322.4,-0.7,1.8,2471.296,13.29,0.024,111.4
2023-04-12T07:13:03,42.805,6.029,0.002,-0.005,-0.019,106.0,106.0,102.0,13.4,1505.2,322.4,-0.8,1.8,2471.287,13.29,0.005,158.2
2023-04-12T07:16:03,42.805,6.029,0.018,-0.007,-0.019,105.0,106.0,103.0,13.3,1505.2,326.8,-0.8,1.8,2471.294,13.29,0.019,111.2
2023-04-12T07:19:03,42.805,6.029,-0.007,-0.009,-0.041,105.0,103.0,102.0,13.3,1505.2,334.4,-0.7,1.8,2471.283,13.29,0.011,217.9
2023-04-12T07:22:03,42.805,6.029,0.006,0.0,0.0,106.0,104.0,103.0,13.4,1505.2,322.7,-0.7,1.8,2471.259,13.29,0.006,90.0
2023-04-12T07:25:03,42.805,6.029,0.006,-0.003,-0.032,106.0,104.0,103.0,13.3,1505.2,328.5,-0.8,1.8,2471.29,13.29,0.006,116.6
2023-04-12T07:28:03,42.805,6.029,0.028,-0.022,-0.023,103.0,106.0,103.0,13.4,1505.2,341.8,-0.7,1.8,2471.258,13.29,0.035,128.2
2023-04-12T07:31:03,42.805,6.029,0.0,-0.017,-0.008,107.0,104.0,102.0,13.4,1505.2,320.7,-0.8,1.8,2471.263,13.29,0.017,180.0
2023-04-12T07:34:03,42.805,6.029,-0.007,-0.007,-0.026,105.0,104.0,103.0,13.3,1505.2,333.9,-0.8,1.8,2471.26,13.29,0.009,225.0
2023-04-12T07:37:03,42.805,6.029,0.026,-0.026,-0.023,105.0,105.0,102.0,13.4,1505.2,325.0,-0.8,1.8,2471.281,13.29,0.036,135.0
2023-04-12T07:40:03,42.805,6.029,0.019,-0.005,-0.001,105.0,106.0,102.0,13.4,1505.2,316.8,-0.8,1.8,2471.247,13.29,0.019,104.7
2023-04-12T07:43:03,42.805,6.029,0.012,0.007,-0.008,107.0,104.0,102.0,13.4,1505.2,322.7,-0.7,1.8,2471.275,13.29,0.013,59.7
2023-04-12T07:46:03,42.805,6.029,0.009,-0.01,-0.029,106.0,105.0,102.0,13.4,1505.2,324.0,-0.8,1.8,2471.294,13.29,0.013,138.0
2023-04-12T07:49:03,42.805,6.029,0.015,-0.015,-0.036,104.0,105.0,102.0,13.4,1505.2,343.2,-0.8,1.8,2471.274,13.29,0.021,135.0
2023-04-12T07:52:03,42.805,6.029,0.013,-0.014,-0.03,103.0,105.0,102.0,13.3,1505.2,318.7,-0.7,1.8,2471.296,13.29,0.019,137.1
2023-04-12T07:55:03,42.805,6.029,0.045,-0.016,-0.022,104.0,104.0,102.0,13.3,1505.2,331.9,-0.8,1.8,2471.292,13.29,0.047,109.6
2023-04-12T07:58:03,42.805,6.029,-0.003,0.0,-0.025,104.0,103.0,102.0,13.4,1505.2,333.4,-0.8,1.8,2471.26,13.29,0.003,270.0
2023-04-12T08:04:03,42.805,6.029,0.016,-0.021,-0.001,104.0,104.0,103.0,13.3,1505.2,333.8,-0.8,1.8,2471.358,13.28,0.026,142.7
2023-04-12T08:07:03,42.805,6.029,0.028,-0.013,-0.021,104.0,104.0,103.0,13.4,1505.2,326.0,-0.8,1.8,2471.285,13.29,0.03,114.9
2023-04-12T08:10:03,42.805,6.029,0.023,-0.021,-0.039,105.0,104.0,102.0,13.3,1505.2,323.3,-0.8,1.8,2471.357,13.29,0.031,132.4
2023-04-12T08:13:03,42.805,6.029,0.021,-0.006,-0.016,104.0,104.0,101.0,13.4,1505.2,319.1,-0.8,1.8,2471.348,13.29,0.021,105.9
2023-04-12T08:16:03,42.805,6.029,0.025,-0.003,-0.014,103.0,104.0,102.0,13.3,1505.2,326.0,-0.8,1.8,2471.299,13.29,0.025,96.8
2023-04-12T08:19:03,42.805,6.029,0.01,-0.006,-0.03,105.0,104.0,102.0,13.3,1505.2,335.8,-0.7,1.8,2471.352,13.29,0.011,121.0
2023-04-12T08:22:03,42.805,6.029,0.006,-0.023,-0.054,104.0,103.0,102.0,13.4,1505.2,341.9,-0.7,1.8,2471.292,13.29,0.023,165.4
2023-04-12T08:25:03,42.805,6.029,0.011,-0.03,-0.027,105.0,104.0,102.0,13.4,1505.2,341.9,-0.7,1.8,2471.28,13.29,0.031,159.9
2023-04-12T08:28:03,42.805,6.029,0.016,-0.016,-0.051,103.0,105.0,102.0,13.4,1505.2,319.2,-0.8,1.8,2471.322,13.29,0.022,135.0
2023-04-12T08:31:03,42.805,6.029,0.006,-0.011,-0.035,105.0,103.0,102.0,13.4,1505.2,330.1,-0.7,1.8,2471.254,13.29,0.012,151.4
2023-04-12T08:34:03,42.805,6.029,0.011,-0.011,-0.043,103.0,103.0,103.0,13.3,1505.2,327.0,-0.8,1.9,2471.305,13.29,0.015,135.0
2023-04-12T08:37:03,42.805,6.029,0.009,-0.001,-0.011,105.0,104.0,102.0,13.3,1505.2,329.8,-0.7,1.8,2471.286,13.29,0.009,96.3
2023-04-12T08:40:03,42.805,6.029,0.027,-0.012,-0.032,104.0,104.0,102.0,13.4,1505.2,331.4,-0.7,1.8,2471.285,13.29,0.029,114.0
2023-04-12T08:43:03,42.805,6.029,0.013,-0.011,-0.007,105.0,104.0,103.0,13.4,1505.2,338.9,-0.8,1.8,2471.333,13.29,0.017,130.2
2023-04-12T08:46:03,42.805,6.029,0.026,-0.014,-0.013,104.0,104.0,102.0,13.3,1505.2,331.0,-0.8,1.8,2471.279,13.29,0.029,118.3
2023-04-12T08:49:03,42.805,6.029,0.006,-0.014,-0.004,103.0,104.0,103.0,13.4,1505.2,324.7,-0.7,1.8,2471.306,13.29,0.015,156.8
2023-04-12T08:52:03,42.805,6.029,0.015,-0.019,-0.012,105.0,104.0,103.0,13.3,1505.2,342.2,-0.7,1.8,2471.301,13.29,0.024,141.7
2023-04-12T08:55:03,42.805,6.029,0.013,-0.015,-0.009,105.0,104.0,102.0,13.3,1505.2,324.6,-0.8,1.8,2471.266,13.29,0.019,139.1
2023-04-12T08:58:03,42.805,6.029,0.014,-0.002,-0.014,103.0,104.0,102.0,13.4,1505.2,327.0,-0.8,1.8,2471.279,13.29,0.014,98.1
2023-04-12T09:04:03,42.805,6.029,0.016,-0.009,-0.046,106.0,103.0,102.0,13.4,1505.2,340.8,-0.8,1.8,2471.346,13.28,0.018,119.4
2023-04-12T09:07:03,42.805,6.029,0.017,-0.035,-0.037,104.0,105.0,103.0,13.3,1505.2,341.2,-0.7,1.8,2471.352,13.29,0.038,154.1
2023-04-12T09:10:03,42.805,6.029,0.031,-0.017,-0.021,104.0,104.0,101.0,13.4,1505.2,326.0,-0.7,1.8,2471.336,13.29,0.035,118.7
2023-04-12T09:13:03,42.805,6.029,0.03,0.006,0.004,105.0,104.0,103.0,13.3,1505.2,325.8,-0.8,1.8,2471.32,13.29,0.03,78.7
2023-04-12T09:16:03,42.805,6.029,0.008,-0.01,-0.015,105.0,104.0,102.0,13.4,1505.2,344.7,-0.8,1.8,2471.323,13.29,0.012,141.3
2023-04-12T09:19:03,42.805,6.029,0.041,0.0,-0.038,103.0,104.0,102.0,13.4,1505.2,324.4,-0.8,1.9,2471.34,13.29,0.041,90.0
2023-04-12T09:22:03,42.805,6.029,0.001,-0.01,-0.036,104.0,104.0,102.0,13.4,1505.2,335.1,-0.7,1.8,2471.324,13.29,0.01,174.3
2023-04-12T09:25:03,42.805,6.029,0.042,-0.025,-0.043,103.0,103.0,101.0,13.4,1505.2,329.3,-0.8,1.8,2471.329,13.29,0.048,120.8
2023-04-12T09:28:03,42.805,6.029,-0.006,0.002,-0.018,103.0,104.0,102.0,13.3,1505.2,332.9,-0.8,1.8,2471.312,13.29,0.006,288.4
2023-04-12T09:31:03,42.805,6.029,0.022,-0.012,-0.022,104.0,105.0,102.0,13.4,1505.2,341.9,-0.8,1.8,2471.346,13.29,0.025,118.6
2023-04-12T09:34:03,42.805,6.029,0.026,0.009,-0.009,105.0,104.0,102.0,13.4,1505.2,317.5,-0.8,1.8,2471.332,13.29,0.027,70.9
2023-04-12T09:37:03,42.805,6.029,0.03,0.005,-0.013,105.0,103.0,103.0,13.3,1505.2,328.6,-0.8,1.8,2471.288,13.29,0.03,80.5
2023-04-12T09:40:03,42.805,6.029,0.002,0.004,-0.008,103.0,104.0,102.0,13.4,1505.2,333.4,-0.8,1.8,2471.319,13.29,0.004,26.6
2023-04-12T09:43:03,42.805,6.029,0.014,0.001,-0.016,105.0,103.0,103.0,13.4,1505.2,328.3,-0.8,1.8,2471.312,13.29,0.014,85.9
2023-04-12T09:46:03,42.805,6.029,0.041,-0.015,-0.033,104.0,104.0,102.0,13.4,1505.2,334.6,-0.7,1.8,2471.337,13.29,0.043,110.1
2023-04-12T09:49:03,42.805,6.029,0.029,-0.001,-0.051,104.0,105.0,102.0,13.4,1505.2,328.3,-0.8,1.8,2471.337,13.29,0.029,92.0
2023-04-12T09:52:03,42.805,6.029,0.018,0.014,-0.027,105.0,103.0,102.0,13.4,1505.2,329.8,-0.8,1.8,2471.311,13.29,0.022,52.1
2023-04-12T09:55:03,42.805,6.029,0.027,-0.021,-0.011,104.0,104.0,102.0,13.4,1505.2,340.9,-0.7,1.8,2471.319,13.29,0.034,127.9